Location: Chakepay
(13.3931°S, 72.1925°W)
Time: 16:28:13
(UTC+00:00)

Cosmos 1821 Rocket - Pass Details

Date: 15 November 2019
Orbit: 946 x 1004 km, 82.9° (Epoch: 14 December)

Event Time Altitude Azimuth Distance (km) Brightness Sun altitude
Rises 07:32:22 0° 180° (S) 3,653 7.4 -35.6°
Reaches altitude 10° 07:34:54 10° 177° (S) 2,696 6.7 -35.1°
Enters shadow 07:39:46 55° 151° (SSE) 1,137 4.5 -34.1°
